Location: Home
(42.5358°N, 72.7383°W)
Time: 09:56:57
(UTC-05:00)

Vanguard 2 - Pass Details

Date: 30 November 2021
Orbit: 553 x 2936 km, 32.9° (Epoch: 21 January)

Event Time Altitude Azimuth Distance (km) Brightness Sun altitude
Rises 13:57:24 0° 228° (SW) 3,090 12.1 18.3°
Reaches altitude 10° 13:59:43 10° 215° (SW) 2,363 12.7 18.1°
Maximum altitude 14:04:28 29° 156° (SSE) 1,788 10.0 17.6°
Drops below altitude 10° 14:11:27 10° 101° (E) 3,555 10.7 16.8°
Sets 14:15:47 0° 92° (E) 4,985 11.3 16.3°
